Home   Weather   Jakobstad   Past weeks

Flag for Finland Past Weather in Jakobstad, Finland — Yesterday and Last 2 Weeks

Now
54 °F

Mostly cloudy.


Feels Like: 53 °F
Forecast: 48 / 61 °F
Wind: 5 mph from South

Location: Kruunupyy

Current Time: Sep 26, 2016 at 8:22:56 AM

Latest Report: Sep 26, 2016 at 7:50 AM


Visibility: N/A

Pressure: 30.15 "Hg

Humidity: 100%

Dew Point: 54 °F

Location of JakobstadLocation

Past Weather in Jakobstad — Graph

°F

Jakobstad Temperature Yesterday

Maximum temperature yesterday: 57 °F (at 1:50 PM)
Minimum temperature yesterday: 45 °F (at 12:20 AM)
Average temperature yesterday: 51 °F

High & Low Weather Summary for the Past Weeks

 TemperatureHumidityPressure
High68 °F (Sep 11, 4:20 PM)100% (Sep 11, 7:20 AM)30.30 "Hg (Sep 11, 7:20 AM)
Low28 °F (Sep 17, 5:50 AM)49% (Sep 14, 3:20 PM)29.71 "Hg (Sep 11, 7:20 PM)
Average49 °F84%30.11 "Hg
* Reported Sep 11 7:20 AM — Sep 26 7:20 AM, Jakobstad, Weather by CustomWeather, © 2016

Note: Actual official high and low records may vary slightly from our data, if they occured in-between our weather recording intervals... More about our weather records

Advertising

Jakobstad Weather History for the Previous 24 Hours

Scroll right to see more
 ConditionsComfort  
Time TempWeatherWind HumidityBarometerVisibility
7:20 AM
Mon, Sep 26
54 °FPassing clouds.3 mph100%30.15 "HgN/A
6:50 AM54 °FPassing clouds.2 mph94%30.15 "HgN/A
5:50 AM54 °FOvercast.3 mph100%30.15 "HgN/A
5:20 AM52 °FPassing clouds.3 mph100%30.15 "HgN/A
4:50 AM52 °FOvercast.2 mph100%30.15 "HgN/A
4:20 AM52 °FMostly cloudy.No wind100%30.15 "HgN/A
3:50 AM52 °FMostly cloudy.No wind100%30.15 "HgN/A
3:20 AM50 °FLow clouds.No wind100%30.15 "HgN/A
2:50 AM50 °FPartly cloudy.No wind100%30.15 "HgN/A
2:20 AM48 °FPassing clouds.No wind100%30.12 "HgN/A
1:50 AM48 °FMostly cloudy.No wind100%30.15 "HgN/A
9:50 PM
Sun, Sep 25
48 °FFog.5 mph94%30.09 "Hg0 mi
9:20 PM48 °FPassing clouds.3 mph100%30.09 "Hg1 mi
8:50 PM48 °FPassing clouds.1 mph100%30.09 "Hg1 mi
8:20 PM50 °FPassing clouds.2 mph100%30.09 "Hg1 mi
7:50 PM52 °FFog.No wind100%30.09 "HgN/A
7:20 PM54 °FPartly cloudy.2 mph94%30.09 "HgN/A
6:50 PM57 °FPartly sunny.1 mph88%30.07 "HgN/A
6:20 PM57 °FOvercast.2 mph88%30.07 "HgN/A
5:50 PM57 °FOvercast.2 mph88%30.07 "HgN/A
5:20 PM57 °FMostly cloudy.3 mph88%30.07 "HgN/A
4:50 PM57 °FMore clouds than sun.5 mph88%30.07 "HgN/A
4:20 PM57 °FOvercast.6 mph88%30.07 "HgN/A
3:50 PM57 °FMore clouds than sun.8 mph82%30.07 "HgN/A
3:20 PM57 °FMostly cloudy.6 mph88%30.04 "HgN/A
2:50 PM55 °FMostly cloudy.8 mph88%30.04 "HgN/A
2:20 PM57 °FMostly cloudy.8 mph82%30.04 "HgN/A
1:50 PM57 °FMostly cloudy.8 mph88%30.04 "HgN/A
1:20 PM55 °FCloudy.7 mph88%30.04 "HgN/A
12:50 PM55 °FMore clouds than sun.6 mph94%30.04 "HgN/A
12:20 PM54 °FMostly cloudy.7 mph94%30.04 "HgN/A
11:50 AM54 °FBroken clouds.7 mph94%30.04 "HgN/A
11:20 AM54 °FBroken clouds.8 mph94%30.04 "HgN/A
10:50 AM54 °FSprinkles. Mostly cloudy.8 mph94%30.04 "HgN/A
10:20 AM52 °FPartly sunny.8 mph100%30.04 "HgN/A
9:50 AM52 °FLight rain. Cloudy.7 mph94%30.04 "HgN/A
9:20 AM50 °FSprinkles. Broken clouds.7 mph100%30.04 "Hg6 mi
8:50 AM50 °FLight rain. Broken clouds.6 mph94%30.04 "HgN/A
8:20 AM48 °FLight rain. Broken clouds.6 mph100%30.04 "HgN/A
Weather by CustomWeather, © 2016

See weather overviewHow to use our weather pages